Wind_Speed
67 69 74 76 61 71 75 75 53 77 76 80 82 81 79 77 76 75 73 71 70 71 68 66 64 63 60 58 56 56 55 54 52 50 48 47 48 51 51 50 49 48 45
64 71 77 78 74 71 67 62 82 79 71 76 82 82 80 77 74 75 74 73 72 72 70 67 64 63 61 60 57 57 55 55 53 49 51 50 49 51 53 51 51 54 52
66 74 83 90 83 77 66 60 53 64 64 69 72 77 79 79 77 75 76 77 75 73 70 68 65 63 60 60 59 58 56 55 54 52 54 51 53 54 53 53 54 57 58
72 75 80 80 72 87 83 64 60 64 66 70 68 68 73 76 80 80 78 77 77 75 72 70 67 64 63 62 61 61 60 58 59 55 57 56 56 58 56 57 58 58 62
71 75 80 80 77 79 75 74 64 54 54 63 66 65 73 74 72 75 77 77 78 77 76 74 72 70 67 68 65 64 65 62 62 61 62 60 62 63 62 61 62 63 69
73 76 81 85 75 67 69 68 63 56 45 59 63 64 65 72 79 73 70 74 75 78 80 79 76 75 72 72 70 68 66 68 68 69 67 65 67 67 67 69 70 72 69
73 75 79 92 78 72 72 74 67 63 55 58 62 58 67 65 69 74 72 68 68 67 71 75 76 77 75 75 74 72 73 73 71 72 74 73 74 74 73 73 73 71 73
72 75 74 89 88 93 89 77 69 66 65 62 76 79 73 75 68 68 72 74 75 75 72 72 73 73 76 77 78 77 77 76 76 75 74 76 73 75 72 75 75 74 72
77 75 74 87 91 92 84 78 73 67 70 69 76 76 77 75 75 72 74 73 79 79 81 84 85 80 80 77 77 76 78 75 74 71 70 70 70 71 75 78 81 76 80
68 71 74 79 86 90 91 89 79 72 73 73 76 78 81 77 77 72 74 75 75 76 79 81 80 80 81 80 79 80 80 76 76 74 74 77 78 80 82 81 80 84 86
56 72 78 85 90 87 85 80 80 79 74 78 78 78 79 80 78 78 76 79 78 80 82 80 82 82 81 83 85 83 84 82 83 83 83 86 87 86 84 86 85 83 86
50 62 69 78 86 84 85 80 88 89 89 87 88 88 85 86 85 83 83 86 88 88 91 90 91 93 87 89 88 89 86 86 84 87 86 90 91 92 89 87 87 89 89
50 57 70 76 85 89 90 92 89 92 91 93 95 96 93 92 92 88 90 88 88 87 87 88 92 94 96 98 96 95 93 92 92 92 93 92 93 92 91 92 92 95 96
51 62 67 75 84 90 90 91 94 99 101 105 106 102 103 103 103 99 97 100 99 98 97 97 95 96 101 100 102 104 103 104 99 96 94 95 97 96 95 97 98 101 94
46 62 71 77 83 88 91 99 102 103 104 106 110 110 109 113 112 108 109 107 110 105 106 100 108 106 109 108 105 106 102 103 101 102 101 100 103 103 102 105 100 94 96
30 48 67 80 86 91 97 100 105 112 111 111 116 120 117 118 120 120 122 121 119 120 120 113 112 111 110 115 115 116 114 112 112 109 105 105 106 107 107 101 98 103 100
46 39 46 61 79 87 98 104 110 114 116 120 124 124 124 122 123 124 124 122 122 121 121 122 124 118 117 116 117 115 110 111 109 107 106 105 108 105 102 102 102 103 103
66 65 57 54 57 66 85 99 107 116 121 126 128 130 133 134 133 133 134 133 133 132 131 127 123 125 119 120 121 123 118 114 112 115 114 114 109 107 111 110 112 114 114
74 76 77 76 73 70 71 74 86 105 119 125 133 136 138 140 143 142 143 142 141 140 140 136 133 132 126 127 128 126 125 128 121 122 120 120 122 122 124 120 119 119 119
83 87 88 88 86 83 83 82 82 84 96 113 129 133 140 146 149 153 151 153 152 149 150 148 145 144 142 140 137 136 132 129 128 127 129 131 130 129 128 127 131 129 131
95 97 98 97 95 93 93 92 91 89 91 95 106 122 134 139 145 152 155 160 161 160 156 155 154 151 147 148 147 144 141 141 137 138 135 136 135 135 134 136 136 135 136
106 108 106 105 103 100 98 96 92 91 92 93 95 101 113 127 136 141 146 153 160 163 167 169 166 163 162 158 155 155 155 153 147 144 143 142 145 144 144 142 139 144 144
113 111 110 110 108 102 96 91 89 90 91 93 95 97 99 102 109 124 137 141 144 150 157 161 162 163 168 171 171 167 167 163 161 158 156 154 154 155 154 151 148 151 150
114 115 112 109 104 98 95 92 92 93 94 96 97 98 99 101 104 106 110 118 132 138 137 141 146 153 158 161 161 166 167 168 169 165 164 162 162 161 159 158 156 155 148
114 111 105 101 99 99 98 94 90 89 90 90 92 94 97 100 102 105 106 107 111 113 118 125 127 130 134 143 152 156 155 156 159 159 157 158 160 159 156 152 150 148 146
108 104 103 101 98 94 90 86 83 82 81 82 83 85 87 88 91 95 100 103 105 107 105 109 114 117 118 124 129 134 138 144 146 146 143 142 142 143 141 138 137 135 133
Wind_Direction
190 192 192 194 200 204 202 198 227 224 223 227 228 228 230 234 236 239 241 243 243 245 246 247 248 249 251 253 257 258 260 264 269 272 275 279 279 279 281 281 281 285 281
186 188 185 184 182 195 203 210 223 224 222 229 230 231 231 232 237 241 242 244 245 246 248 249 250 251 253 254 255 256 260 264 268 272 275 278 278 278 278 283 282 282 281
181 187 185 187 190 180 175 192 207 223 224 229 232 232 234 235 235 238 241 243 245 247 248 251 252 253 255 255 256 258 262 266 269 270 273 276 277 277 278 280 277 278 280
180 185 188 190 188 187 191 196 200 224 227 232 235 235 236 238 239 240 241 245 247 247 248 249 251 252 253 254 255 258 262 264 267 269 270 273 275 275 273 272 271 271 275
179 186 186 190 183 186 190 197 204 213 226 224 231 236 236 235 237 239 240 243 245 247 247 248 249 249 252 254 255 257 261 263 264 265 270 272 271 270 270 270 268 269 275
183 188 187 180 179 182 189 198 202 203 200 218 225 233 238 237 237 239 240 240 242 246 248 248 250 252 254 257 256 259 259 264 263 268 269 267 268 269 269 267 268 273 276
186 190 191 186 186 188 197 199 210 213 206 211 214 223 228 233 238 238 241 245 243 243 246 248 251 253 256 257 257 261 260 261 261 264 266 266 267 267 269 270 268 271 277
188 192 196 195 199 202 206 216 214 218 214 217 220 225 228 233 236 235 235 238 238 239 242 244 249 251 254 255 258 259 258 260 261 265 265 266 266 266 267 267 268 269 274
191 196 196 197 200 204 209 214 212 214 218 219 225 229 229 233 239 241 240 240 242 243 246 248 249 249 250 251 251 253 255 257 259 260 261 260 262 263 264 266 268 271 277
200 199 199 197 203 205 211 215 214 214 215 221 226 228 230 231 234 237 237 240 238 238 239 240 241 243 247 248 250 251 252 253 253 254 258 260 260 259 261 262 266 274 279
216 204 200 199 202 207 211 212 214 217 219 225 224 226 231 234 235 238 238 239 237 235 238 243 243 244 246 245 247 247 250 255 256 256 259 258 259 263 263 268 273 275 278
222 217 212 211 208 213 219 220 222 224 225 228 230 231 235 234 234 236 239 243 245 247 247 248 250 248 248 249 251 253 254 254 256 258 256 258 258 262 264 268 273 275 282
214 214 214 214 215 220 225 227 228 229 230 233 235 234 235 234 237 238 239 242 244 248 250 252 251 248 250 252 252 252 255 259 260 262 263 265 265 265 267 274 273 277 280
224 215 218 221 221 223 226 227 228 231 234 233 234 235 238 237 238 240 242 243 244 247 246 249 252 253 257 255 256 256 258 260 260 262 262 263 263 267 269 271 274 273 276
251 238 231 228 227 230 232 233 232 232 235 234 235 238 241 241 241 242 242 244 244 246 248 248 250 252 252 254 255 255 255 258 260 261 264 264 263 266 269 268 271 271 272
275 254 246 242 238 237 236 235 235 235 236 238 238 238 240 242 244 246 247 247 248 249 249 249 252 253 253 254 257 257 257 259 262 263 263 265 266 267 270 268 267 270 271
303 269 254 251 250 248 246 242 240 239 239 239 239 239 241 241 242 243 245 244 246 247 246 249 250 252 252 254 255 254 256 259 260 260 262 261 262 267 266 264 266 269 270
311 307 294 271 259 253 253 250 249 246 245 244 244 243 243 243 243 244 245 245 246 247 249 248 248 249 251 252 253 254 255 255 257 257 257 261 259 258 263 262 264 265 269
307 305 303 299 292 282 270 259 254 253 250 248 246 246 245 245 244 244 244 244 245 245 246 246 249 248 249 250 251 253 253 255 256 254 257 255 257 258 260 263 264 265 267
305 304 301 299 296 291 286 280 270 260 252 252 250 248 247 246 245 245 245 245 245 246 247 248 248 248 249 250 250 251 252 252 253 254 255 258 258 260 260 263 264 267 267
305 304 302 299 297 293 290 286 281 275 267 258 251 250 251 250 248 247 247 246 246 246 247 248 249 248 249 249 251 252 253 254 254 253 256 257 259 259 261 263 267 266 267
303 302 300 298 297 294 291 287 283 278 273 269 263 256 251 250 251 252 250 249 248 248 248 247 247 249 250 249 251 252 254 254 254 256 257 259 259 260 262 265 266 266 269
302 301 300 299 297 294 290 285 282 278 274 270 267 264 261 256 252 250 250 252 253 252 251 251 251 250 250 250 250 253 254 254 254 256 259 260 260 262 264 266 268 270 271
301 300 299 298 296 292 289 285 281 278 274 271 268 265 263 261 259 256 253 251 251 253 254 253 253 253 254 254 254 253 255 255 255 256 257 258 261 262 264 265 267 269 272
301 301 300 297 294 292 289 286 283 279 275 271 268 266 263 261 260 259 258 256 254 252 252 254 255 255 254 255 255 255 256 257 258 259 258 258 260 262 264 265 267 269 271
303 301 300 298 295 293 290 287 283 280 276 273 270 267 265 263 261 260 260 259 256 255 253 252 253 254 254 254 255 255 256 257 257 258 259 261 261 261 262 263 265 266 268
Height
10494 10517 10538 10561 10584 10603 10621 10643 10645 10648 10657 10662 10670 10677 10685 10693 10700 10705 10710 10716 10720 10724 10727 10729 10731 10734 10737 10740 10742 10743 10743 10744 10745 10747 10748 10748 10747 10746 10744 10743 10743 10743 10742
10498 10515 10538 10560 10570 10591 10618 10630 10629 10635 10643 10649 10658 10668 10677 10684 10691 10697 10702 10705 10708 10712 10716 10719 10721 10724 10727 10730 10731 10732 10733 10733 10734 10737 10737 10737 10736 10735 10736 10734 10733 10732 10730
10494 10520 10531 10546 10561 10590 10603 10611 10618 10628 10638 10645 10651 10660 10668 10673 10678 10682 10688 10691 10696 10702 10706 10708 10711 10713 10716 10718 10720 10721 10722 10722 10723 10724 10724 10727 10724 10724 10725 10723 10722 10721 10719
10499 10520 10533 10550 10565 10576 10585 10597 10608 10618 10627 10636 10640 10649 10656 10662 10667 10672 10677 10682 10688 10691 10694 10696 10697 10700 10702 10705 10706 10708 10709 10711 10710 10712 10709 10714 10713 10711 10713 10710 10710 10708 10707
10506 10518 10532 10546 10561 10571 10586 10596 10604 10609 10614 10621 10631 10638 10644 10649 10655 10659 10664 10669 10674 10677 10680 10682 10683 10685 10687 10689 10692 10693 10695 10697 10697 10697 10696 10699 10698 10697 10697 10696 10695 10694 10694
10508 10521 10533 10548 10566 10572 10581 10587 10594 10599 10602 10609 10620 10626 10631 10636 10641 10646 10650 10655 10659 10663 10666 10667 10669 10670 10672 10674 10676 10678 10681 10682 10683 10682 10682 10682 10682 10680 10682 10680 10679 10679 10678
10511 10525 10538 10551 10555 10565 10571 10577 10583 10589 10593 10599 10607 10610 10614 10620 10623 10627 10633 10639 10643 10647 10648 10653 10655 10657 10657 10658 10660 10662 10664 10664 10666 10666 10665 10666 10664 10664 10666 10663 10664 10662 10663
10516 10524 10534 10544 10551 10554 10562 10570 10577 10582 10587 10591 10594 10595 10600 10604 10607 10611 10616 10622 10624 10627 10631 10635 10639 10640 10642 10642 10644 10645 10646 10646 10648 10647 10650 10647 10648 10646 10648 10646 10644 10649 10646
10514 10521 10531 10539 10543 10552 10560 10564 10566 10569 10573 10576 10580 10585 10589 10593 10595 10597 10601 10603 10607 10609 10613 10617 10619 10620 10622 10622 10624 10627 10628 10628 10630 10630 10630 10631 10630 10630 10628 10629 10627 10630 10630
10521 10524 10531 10539 10541 10541 10544 10552 10556 10557 10559 10562 10566 10570 10572 10575 10577 10580 10582 10584 10586 10589 10591 10594 10598 10599 10602 10603 10604 10608 10608 10609 10610 10610 10611 10612 10611 10609 10609 10609 10609 10610 10610
10517 10522 10528 10532 10535 10538 10542 10546 10548 10549 10551 10552 10554 10557 10558 10560 10563 10564 10566 10566 10566 10568 10572 10574 10576 10578 10579 10580 10583 10585 10586 10589 10590 10591 10592 10593 10592 10592 10593 10593 10592 10591 10589
10513 10523 10526 10531 10532 10533 10533 10534 10535 10536 10536 10536 10538 10540 10541 10543 10545 10546 10549 10549 10550 10551 10554 10555 10557 10558 10559 10561 10562 10566 10566 10567 10569 10571 10571 10572 10570 10575 10574 10576 10573 10569 10570
10506 10511 10516 10517 10519 10521 10522 10523 10522 10521 10520 10521 10521 10521 10521 10522 10526 10527 10528 10529 10530 10531 10533 10534 10535 10536 10538 10541 10541 10544 10546 10547 10550 10552 10554 10555 10552 10556 10557 10555 10554 10551 10550
10505 10503 10505 10505 10506 10504 10502 10501 10499 10501 10502 10500 10497 10498 10500 10503 10504 10504 10505 10505 10506 10507 10510 10512 10513 10513 10516 10518 10519 10520 10524 10526 10528 10530 10532 10533 10533 10534 10534 10534 10534 10533 10530
10500 10500 10498 10493 10490 10486 10484 10483 10480 10478 10476 10473 10475 10478 10477 10475 10475 10477 10479 10479 10479 10481 10484 10486 10486 10490 10493 10492 10492 10495 10498 10501 10505 10507 10509 10510 10510 10511 10512 10512 10510 10510 10508
10482 10480 10480 10480 10476 10472 10466 10462 10457 10455 10454 10452 10450 10449 10449 10448 10448 10449 10450 10452 10453 10454 10458 10459 10461 10464 10466 10463 10467 10469 10473 10477 10480 10482 10484 10485 10486 10486 10485 10485 10486 10486 10484
10456 10456 10455 10452 10451 10448 10446 10442 10437 10433 10429 10425 10422 10421 10420 10420 10419 10417 10418 10419 10421 10423 10426 10429 10433 10436 10439 10438 10439 10442 10446 10449 10453 10456 10458 10459 10460 10460 10461 10460 10463 10463 10463
10430 10427 10426 10424 10422 10418 10414 10409 10406 10402 10400 10397 10393 10391 10389 10387 10386 10385 10386 10387 10389 10391 10394 10397 10401 10406 10409 10409 10410 10413 10421 10427 10428 10430 10432 10435 10436 10437 10436 10438 10443 10443 10441
10404 10400 10395 10390 10386 10382 10379 10374 10370 10365 10361 10358 10355 10352 10351 10351 10350 10349 10349 10350 10353 10355 10359 10362 10367 10373 10378 10376 10378 10380 10387 10397 10402 10402 10403 10408 10410 10409 10412 10417 10417 10415 10416
10375 10369 10362 10355 10349 10343 10338 10332 10328 10324 10320 10314 10311 10309 10309 10309 10310 10310 10310 10311 10314 10319 10321 10327 10330 10335 10343 10343 10344 10345 10352 10366 10373 10373 10378 10381 10381 10381 10386 10392 10391 10392 10390
10345 10336 10326 10317 10310 10304 10297 10289 10283 10279 10274 10272 10269 10265 10262 10261 10264 10267 10268 10271 10273 10276 10282 10287 10290 10297 10304 10309 10310 10310 10317 10329 10337 10343 10348 10350 10350 10353 10357 10362 10365 10362 10365
10309 10299 10289 10278 10269 10262 10254 10246 10240 10234 10228 10224 10221 10221 10219 10217 10217 10219 10219 10223 10227 10231 10235 10244 10253 10258 10262 10268 10274 10276 10281 10289 10301 10312 10318 10319 10317 10321 10326 10333 10337 10333 10340
10270 10258 10248 10236 10225 10217 10210 10205 10198 10192 10186 10181 10176 10174 10173 10173 10173 10176 10176 10176 10178 10186 10193 10196 10206 10216 10223 10233 10237 10241 10243 10251 10260 10276 10285 10287 10286 10289 10299 10305 10311 10303 10309
10234 10221 10207 10195 10183 10174 10166 10162 10157 10150 10145 10139 10134 10132 10132 10129 10126 10128 10131 10135 10135 10141 10151 10157 10165 10175 10182 10189 10195 10201 10205 10214 10223 10238 10249 10253 10252 10257 10268 10274 10286 10282 10282
10195 10181 10168 10156 10145 10133 10122 10117 10111 10105 10100 10097 10093 10090 10089 10088 10087 10087 10089 10095 10098 10105 10114 10116 10123 10131 10141 10145 10148 10152 10162 10175 10183 10190 10208 10218 10224 10224 10231 10242 10247 10252 10254
10155 10141 10128 10117 10104 10091 10082 10077 10071 10065 10061 10057 10054 10052 10052 10052 10053 10052 10051 10053 10059 10063 10077 10081 10083 10089 10100 10103 10108 10114 10122 10130 10141 10148 10166 10175 10184 10189 10199 10210 10217 10223 10225